[[{"header":{"parameterUnit":"m.s-1","parameterCategory":1,"la1":30.2991,"la2":30.254,"lo1":-89.0895,"lo2":-89.0444,"dy":0.0017,"dx":0.0017,"nx":28,"ny":28,"refTime":"2025-12-24T03:00:00:Z","depth":0,"parameterNumber":2,"parameterNumberName":"U-component_of_WINDS"},"data":[0,0,0,0,0,0,0,0,0,0,0,0,0,0,0,0,0,0,0,0,0,0,0,0,0,0,0,0,0,0,0,0,0,0,0,0,0,0,0,0,0,0,0,0,0,0,0,0,0,0,0,0,0,0,0,0,0,0,-2.0467,-2.0467,0,-2.0467,-2.0467,-2.0467,-2.0412,-2.0411,-2.0409,-2.0408,-2.0408,-2.0409,-2.041,0,0,0,0,0,0,0,0,0,0,0,0,0,-2.0418,-2.0419,-2.0467,-2.0467,-2.0467,-2.0467,-2.0467,-2.0467,-2.0412,-2.041,-2.0409,-2.0407,-2.0407,-2.0409,-2.0411,0,0,0,0,0,0,0,0,0,0,0,0,0,-2.0431,-2.0419,-2.0467,-2.0439,-2.0437,-2.0467,-2.0467,-2.0467,-2.0413,-2.041,-2.0408,-2.0406,-2.0407,-2.0409,-2.0411,-2.0467,0,0,-2.0417,-2.0418,0,0,0,0,0,0,0,0,-2.043,-2.0433,-2.0443,-2.0441,-2.0439,-2.0437,-2.045,-2.0467,-2.0413,-2.0422,-2.0408,-2.0405,-2.0419,-2.042,-2.0425,-2.0467,-2.0467,-2.0417,-2.0418,-2.0419,-2.042,0,0,0,0,0,0,0,-2.0429,-2.0432,-2.0467,-2.0444,-2.0441,-2.0427,-2.0426,-2.0453,-2.0433,-2.0421,-2.0417,-2.0418,-2.0418,-2.0423,-2.0425,-2.0467,-2.0417,-2.0419,-2.042,-2.0421,-2.0555,-2.0557,0,0,0,0,0,0,-2.0432,-2.0432,-2.0467,-2.0467,-2.0429,-2.043,-2.0429,-2.044,-2.0432,-2.0429,-2.042,-2.0415,-2.0421,-2.0422,-2.0424,-2.0489,-2.0419,-2.0421,-2.0422,-2.0553,-2.0556,-2.0558,0,0,0,0,0,0,-2.0431,-2.0436,-2.0467,-2.0448,-2.0451,-2.0433,-2.0446,-2.0441,-2.0447,-2.0431,-2.0427,-2.0429,-2.0419,-2.0422,-2.0457,-2.0489,-2.0422,-2.0424,-2.055,-2.0554,-2.0557,-2.062,0,0,0,0,0,0,-2.043,-2.0436,-2.0457,-2.0449,-2.0452,-2.0499,-2.0448,-2.0443,-2.045,-2.0445,-2.0439,-2.0436,-2.0418,-2.0454,-2.0459,-2.049,-2.0426,-2.0547,-2.0552,-2.0556,-2.0615,-2.0625,-2.0634,0,0,0,0,0,-2.0429,-2.0475,-2.0458,-2.0463,-2.0478,-2.0501,-2.0503,-2.0481,-2.0453,-2.0474,-2.0465,-2.0436,-2.0485,-2.0458,-2.0463,-2.0495,-2.0545,-2.055,-2.0556,-2.0611,-2.0623,-2.0634,0,0,0,0,0,0,-2.0486,-2.0473,-2.0455,-2.05,-2.0502,-2.0492,-2.0518,-2.0495,-2.0505,-2.0499,-2.0471,-2.047,-2.051,-2.0506,-2.0477,-2.055,-2.051,-2.0516,-2.055,-2.0562,-2.0571,-2.0571,-2.0427,0,0,0,0,0,-2.0504,-2.0524,-2.0511,-2.0552,-2.0554,-2.0536,-2.0545,-2.0528,-2.0529,-2.053,-2.0523,-2.0525,-2.054,-2.0551,-2.0565,-2.0615,-2.0613,-2.064,-2.0649,-2.0657,-2.0663,-2.0688,-2.07,-2.0576,-2.0576,-2.0575,0,0,-2.0541,-2.0536,-2.055,-2.0564,-2.0563,-2.0584,-2.0537,-2.0561,-2.0576,-2.0533,-2.0566,-2.0561,-2.0562,-2.0605,-2.0623,-2.0603,-2.0697,-2.0664,-2.067,-2.0671,-2.0695,-2.0707,-2.0717,-2.0579,-2.0579,-2.0578,0,0,-2.0619,-2.0618,-2.0651,-2.0653,-2.0653,-2.0641,-2.0649,-2.0643,-2.0638,-2.0671,-2.0639,-2.0657,-2.0684,-2.0686,-2.069,-2.0771,-2.0745,-2.0776,-2.0825,-2.0851,-2.086,-2.0869,-2.0897,-2.0907,-2.0782,-2.0782,-2.0782,0,-2.0665,-2.0695,-2.0672,-2.0698,-2.0704,-2.0667,-2.0701,-2.0703,-2.0708,-2.0714,-2.0691,-2.0725,-2.0723,-2.0766,-2.0785,-2.0791,-2.0799,-2.0775,-2.0861,-2.0869,-2.0877,-2.0903,-2.0914,-2.0786,-2.0785,-2.0785,-2.0784,0,-2.0751,-2.0773,-2.08,-2.0806,-2.0816,-2.0846,-2.0827,-2.084,-2.0822,-2.0813,-2.0846,-2.0843,-2.0855,-2.0864,-2.0847,-2.0904,-2.0892,-2.0866,-2.0825,-2.0893,-2.0917,-2.0927,-2.0791,-2.0789,-2.0788,-2.0787,0,0,-2.0863,-2.0857,-2.0867,-2.0869,-2.0868,-2.0884,-2.0913,-2.0925,-2.0936,-2.0942,-2.0964,-2.0989,-2.0965,-2.0971,-2.0954,-2.0977,-2.1039,-2.0947,-2.0947,-2.0964,-2.1102,-2.1121,-2.1133,-2.1023,-2.1025,-2.1027,-2.1101,0,-2.0938,-2.0986,-2.0966,-2.1016,-2.1036,-2.1002,-2.1027,-2.1028,-2.1021,-2.1036,-2.1027,-2.1045,-2.1012,-2.1015,-2.1036,-2.1027,-2.1067,-2.1022,-2.1044,-2.1045,-2.1043,-2.1145,-2.1165,-2.1236,-2.1111,-2.1112,-2.1114,0,-2.1031,-2.104,-2.1092,-2.1088,-2.1095,-2.1118,-2.1128,-2.1143,-2.1145,-2.1137,-2.1144,-2.1122,-2.115,-2.1111,-2.1148,-2.1119,-2.1127,-2.1124,-2.1126,-2.1126,-2.1082,-2.1147,-2.1258,-2.1268,-2.1128,-2.1127,-2.1126,0,-2.1107,-2.1132,-2.1167,-2.117,-2.1166,-2.1182,-2.1181,-2.1181,-2.119,-2.1199,-2.1204,-2.1216,-2.1222,-2.1232,-2.1214,-2.1188,-2.1254,-2.1214,-2.1248,-2.1249,-2.1263,-2.1262,-2.1375,-2.127,-2.127,-2.127,-2.127,0,-2.1191,-2.1224,-2.12,-2.1221,-2.1257,-2.1235,-2.1271,-2.1266,-2.1267,-2.1286,-2.1258,-2.1277,-2.1253,-2.1269,-2.1256,-2.1289,-2.1292,-2.1286,-2.1282,-2.1288,-2.1289,-2.1292,-2.1286,-2.1273,-2.1272,-2.1272,-2.1271,0,-2.1281,-2.1266,-2.1301,-2.1295,-2.1294,-2.1321,-2.1315,-2.1334,-2.1325,-2.135,-2.1355,-2.134,-2.1358,-2.1342,-2.1359,-2.135,-2.1394,-2.1383,-2.1393,-2.139,-2.1425,-2.1422,-2.1543,-2.1558,-2.1445,-2.1446,-2.1447,0,-2.1335,-2.1359,-2.1356,-2.1367,-2.1368,-2.1386,-2.1395,-2.1375,-2.1385,-2.139,-2.1408,-2.1424,-2.1435,-2.1466,-2.1457,-2.147,-2.1459,-2.1501,-2.146,-2.1466,-2.1458,-2.1456,-2.1458,-2.1508,-2.151,-2.1511,-2.1512,0,-2.1432,-2.1424,-2.1438,-2.1451,-2.1462,-2.1471,-2.1477,-2.1488,-2.1466,-2.148,-2.1498,-2.1507,-2.1525,-2.1541,-2.1552,-2.155,-2.1528,-2.1525,-2.1533,-2.1539,-2.1543,-2.154,-2.1414,-2.1522,-2.1521,-2.152,-2.1519,-2.1519,-2.1505,-2.1525,-2.1526,-2.1543,-2.1546,-2.1552,-2.157,-2.1563,-2.1578,-2.1591,-2.1579,-2.1601,-2.1602,-2.1614,-2.1616,-2.1633,-2.1615,-2.1628,-2.1631,-2.1634,-2.1639,-2.1542,-2.1635,-2.1635,-2.1634,-2.1634,-2.1634,0,-2.16,-2.1599,-2.1615,-2.1625,-2.1638,-2.1617,-2.1623,-2.1635,-2.1655,-2.1659,-2.1671,-2.1692,-2.1708,-2.17,-2.1714,-2.1729,-2.1719,-2.1733,-2.1731,-2.1731,-2.1654,-2.1645,-2.1741,-2.1741,-2.1741,-2.1741,-2.1741,-2.1741,-2.1651,-2.1684,-2.1677,-2.1711,-2.1709,-2.1731,-2.1736,-2.1742,-2.1745,-2.177,-2.1783,-2.1778,-2.1778,-2.1791,-2.1805,-2.1802,-2.1808,-2.1826,-2.1819,-2.1747,-2.1737,-2.1726,-2.1718,-2.1828,-2.1828,-2.1895,-2.1895,-2.1896]},{"header":{"parameterUnit":"m.s-1","parameterCategory":1,"la1":30.2991,"la2":30.254,"lo1":-89.0895,"lo2":-89.0444,"dy":0.0017,"dx":0.0017,"nx":28,"ny":28,"refTime":"2025-12-24T03:00:00:Z","depth":0,"parameterNumber":3,"parameterNumberName":"V-component_of_WINDS"},"data":[0,0,0,0,0,0,0,0,0,0,0,0,0,0,0,0,0,0,0,0,0,0,0,0,0,0,0,0,0,0,0,0,0,0,0,0,0,0,0,0,0,0,0,0,0,0,0,0,0,0,0,0,0,0,0,0,0,0,0.5194,0.5194,0,0.5204,0.5204,0.5204,0.5263,0.5265,0.5266,0.5267,0.5275,0.5274,0.5273,0,0,0,0,0,0,0,0,0,0,0,0,0,0.5223,0.5223,0.5194,0.5194,0.5194,0.5204,0.5204,0.5204,0.5263,0.5265,0.5266,0.5268,0.5275,0.5274,0.5273,0,0,0,0,0,0,0,0,0,0,0,0,0,0.522,0.5222,0.5194,0.5225,0.5228,0.5204,0.5204,0.5204,0.5262,0.5265,0.5267,0.5269,0.5276,0.5274,0.5272,0.5219,0,0,0.5267,0.5267,0,0,0,0,0,0,0,0,0.522,0.5218,0.522,0.5223,0.5226,0.5235,0.5217,0.5209,0.5262,0.5249,0.5267,0.527,0.526,0.5259,0.5256,0.522,0.522,0.5267,0.5266,0.5265,0.5265,0,0,0,0,0,0,0,0.522,0.5218,0.5198,0.522,0.5223,0.5237,0.5239,0.5216,0.5242,0.525,0.5255,0.5255,0.5262,0.5258,0.5257,0.522,0.5267,0.5266,0.5265,0.5264,0.5141,0.5139,0,0,0,0,0,0,0.5216,0.5218,0.5198,0.5198,0.5228,0.5235,0.5237,0.5229,0.5243,0.5247,0.5253,0.5258,0.526,0.5259,0.5258,0.5197,0.5265,0.5264,0.5263,0.5143,0.514,0.5138,0,0,0,0,0,0,0.5217,0.5214,0.5197,0.5209,0.5208,0.5232,0.5223,0.5229,0.5225,0.5245,0.525,0.5245,0.5261,0.526,0.5229,0.5198,0.5263,0.5262,0.5146,0.5142,0.5139,0.5074,0,0,0,0,0,0,0.5217,0.5214,0.5194,0.5209,0.5207,0.5168,0.5221,0.5227,0.5222,0.5228,0.5238,0.5242,0.5263,0.5231,0.5227,0.5197,0.526,0.5149,0.5144,0.514,0.5079,0.5069,0.506,0,0,0,0,0,0.5218,0.5175,0.5193,0.519,0.5184,0.5167,0.5166,0.5192,0.522,0.52,0.5213,0.5242,0.5202,0.5227,0.5223,0.5192,0.5151,0.5145,0.514,0.5083,0.5071,0.506,0,0,0,0,0,0,0.5155,0.5177,0.5197,0.5157,0.516,0.5177,0.5152,0.5178,0.5171,0.5177,0.5209,0.521,0.5174,0.518,0.5208,0.5141,0.5181,0.5175,0.5139,0.5127,0.5118,0.5117,0.5259,0,0,0,0,0,0.5136,0.5121,0.5141,0.5104,0.5104,0.5128,0.5121,0.5141,0.5145,0.5146,0.5156,0.5157,0.5146,0.5137,0.5127,0.508,0.5083,0.5057,0.5047,0.5039,0.5033,0.5009,0.4998,0.5121,0.5121,0.5121,0,0,0.5097,0.5108,0.5096,0.5092,0.5096,0.5079,0.5128,0.5108,0.5096,0.5142,0.5114,0.5121,0.5125,0.5086,0.5069,0.509,0.5,0.5033,0.5026,0.5025,0.5003,0.4991,0.4981,0.5118,0.5118,0.5119,0,0,0.5018,0.5025,0.4995,0.4998,0.5004,0.5021,0.5013,0.5027,0.5034,0.5006,0.504,0.5026,0.5004,0.5006,0.5004,0.4926,0.4952,0.4922,0.4872,0.4848,0.4839,0.483,0.4802,0.4792,0.4916,0.4916,0.4916,0,0.4969,0.4946,0.4976,0.4954,0.4951,0.4993,0.4963,0.4964,0.4966,0.4963,0.4986,0.496,0.4966,0.4928,0.4909,0.4906,0.4898,0.4921,0.4838,0.483,0.4822,0.4796,0.4786,0.4912,0.4912,0.4913,0.4913,0,0.4885,0.4869,0.4844,0.4846,0.484,0.4814,0.4839,0.4829,0.485,0.4863,0.4835,0.4843,0.4835,0.4828,0.4847,0.4793,0.4805,0.4832,0.4873,0.4806,0.4782,0.4772,0.4907,0.4908,0.4909,0.491,0,0,0.4766,0.4786,0.4776,0.4778,0.4788,0.4775,0.4751,0.4745,0.4736,0.4736,0.4716,0.4698,0.4723,0.4721,0.4741,0.472,0.4658,0.475,0.475,0.4732,0.4599,0.4578,0.4566,0.4676,0.4674,0.4673,0.4598,0,0.469,0.4651,0.4677,0.4633,0.4618,0.4659,0.4638,0.4641,0.4653,0.4642,0.4655,0.4642,0.4677,0.4675,0.4657,0.4669,0.4631,0.4675,0.4657,0.4656,0.4655,0.4553,0.4531,0.4461,0.4589,0.4588,0.4586,0,0.4596,0.4594,0.4549,0.4563,0.4557,0.4538,0.4535,0.4524,0.4529,0.4539,0.4536,0.4562,0.4539,0.4579,0.4547,0.4576,0.457,0.4576,0.4574,0.4573,0.4617,0.4549,0.4439,0.4428,0.4572,0.4573,0.4574,0,0.4514,0.4499,0.447,0.447,0.4486,0.4471,0.4477,0.4484,0.4479,0.4476,0.4473,0.4467,0.4463,0.4457,0.448,0.4507,0.4445,0.4487,0.4453,0.4452,0.4437,0.4438,0.4324,0.4434,0.4434,0.4434,0.4434,0,0.4427,0.4397,0.4433,0.4416,0.4384,0.4415,0.4382,0.4392,0.4398,0.4383,0.4417,0.4401,0.4433,0.442,0.4438,0.4409,0.4407,0.4414,0.4419,0.4411,0.441,0.4407,0.4413,0.4431,0.4432,0.4433,0.4433,0,0.4329,0.4352,0.4323,0.4341,0.4345,0.432,0.4335,0.4319,0.4334,0.4314,0.4311,0.4334,0.4321,0.4344,0.4333,0.4345,0.4305,0.4317,0.4303,0.4307,0.4271,0.4274,0.4151,0.4137,0.4256,0.4254,0.4253,0,0.4271,0.425,0.4266,0.4258,0.4263,0.425,0.4245,0.4275,0.4268,0.4273,0.4256,0.4246,0.424,0.4217,0.4233,0.4225,0.4238,0.4195,0.4237,0.4229,0.4237,0.4238,0.4236,0.4186,0.4185,0.4184,0.4183,0,0.4167,0.418,0.4172,0.4169,0.4162,0.4161,0.4161,0.4153,0.4184,0.4175,0.4163,0.4158,0.4148,0.4138,0.4134,0.4139,0.4166,0.417,0.4161,0.4153,0.4145,0.4149,0.428,0.4172,0.4173,0.4174,0.4175,0.4175,0.4088,0.4071,0.408,0.407,0.4074,0.4074,0.406,0.4074,0.4065,0.406,0.4078,0.4061,0.4067,0.4065,0.4067,0.4055,0.4074,0.4061,0.4058,0.4055,0.4049,0.4148,0.4054,0.4055,0.4055,0.4055,0.4055,0,0.3986,0.3994,0.3985,0.3985,0.3978,0.4005,0.4007,0.3999,0.3984,0.3988,0.3982,0.3968,0.3958,0.3973,0.3966,0.3953,0.3965,0.395,0.3951,0.3952,0.4033,0.4041,0.3941,0.3941,0.3941,0.3941,0.3941,0.3941,0.3931,0.3905,0.3918,0.3894,0.3902,0.3887,0.3886,0.3886,0.389,0.3873,0.3866,0.3876,0.3884,0.3878,0.387,0.3875,0.3871,0.3851,0.386,0.3935,0.3946,0.3957,0.3965,0.385,0.385,0.3781,0.378,0.378]}]]